Location: Erp
(42.9417°N, 1.2009°E)
Time: 12:18:09
(UTC+00:00)

Cosmos 1959 Rocket - Pass Details

Date: 23 April 2026
Orbit: 946 x 997 km, 82.9° (Epoch: 12 May)

Event Time Altitude Azimuth Distance (km) Brightness Sun altitude
Rises 21:33:00 0° 252° (WSW) 3,702 7.8 -25.7°
Reaches altitude 10° 21:39:06 10° 297° (WNW) 2,748 7.7 -26.4°
Maximum altitude 21:39:28 10° 300° (WNW) 2,744 7.7 -26.4°
Drops below altitude 10° 21:39:51 10° 303° (WNW) 2,747 7.7 -26.5°
Sets 21:45:58 0° 349° (NNW) 3,686 8.5 -27.1°
